Location: eljas
(40.1958°N, 6.8661°W)
Time: 13:57:43
(UTC+02:00)

ISS - All Passes

Search period start: 20 September 2014 00:00
Search period end: 30 September 2014 00:00
Orbit: 413 x 417 km, 51.6° (Epoch: 20 September)

Date Brightness Start Highest point End Pass type
(mag) Time Alt. Az. Time Alt. Az. Time Alt. Az.
20 Sep - 03:02:14 10° SE 03:02:51 10° SE 03:03:27 10° ESE night (unlit)
20 Sep - 04:35:45 10° SW 04:39:05 82° NW 04:42:25 10° NE visible
20 Sep - 06:13:51 10° WNW 06:16:13 18° NNW 06:18:35 10° NNE visible
20 Sep - 07:52:43 10° NNW 07:53:59 12° N 07:55:14 10° NNE daylight
20 Sep - 09:29:02 10° NNW 09:31:40 21° NNE 09:34:18 10° ENE daylight
20 Sep - 11:05:20 10° WNW 11:08:39 66° SW 11:11:56 10° SE daylight
21 Sep - 03:47:01 10° SW 03:50:16 54° SE 03:53:32 10° ENE night (unlit)
21 Sep - 05:24:26 10° W 05:27:10 23° NNW 05:29:56 10° NNE visible
21 Sep - 07:03:31 10° NNW 07:04:49 12° N 07:06:08 10° NNE visible
21 Sep - 08:40:23 10° NNW 08:42:36 17° NNE 08:44:50 10° ENE daylight
21 Sep - 10:16:29 10° NW 10:19:48 69° NE 10:23:07 10° ESE daylight
21 Sep - 11:54:36 10° WSW 11:56:07 13° SW 11:57:37 10° SSW daylight
22 Sep - 02:58:33 10° SSW 03:01:29 29° SE 03:04:26 10° ENE night (unlit)
22 Sep - 04:35:05 10° W 04:38:09 33° NNW 04:41:13 10° NE visible
22 Sep - 06:14:02 10° NW 06:15:38 13° N 06:17:15 10° NNE visible
22 Sep - 07:51:40 10° NNW 07:53:28 14° NNE 07:55:16 10° NE daylight
22 Sep - 09:27:41 10° NW 09:30:52 41° NNE 09:34:02 10° ESE daylight
22 Sep - 11:04:45 10° W 11:07:24 22° SW 11:10:03 10° S daylight
23 Sep - 02:10:32 10° S 02:12:44 17° SE 02:14:56 10° E night (unlit)
23 Sep - 03:45:53 10° WSW 03:49:09 53° NNW 03:52:25 10° NE night (unlit)
23 Sep - 05:24:25 10° NW 05:26:27 15° NNW 05:28:28 10° NNE visible
23 Sep - 07:02:49 10° NNW 07:04:15 12° N 07:05:41 10° NNE visible
23 Sep - 08:38:55 10° NW 08:41:50 27° NNE 08:44:44 10° E daylight
23 Sep - 10:15:28 10° WNW 10:18:37 40° SW 10:21:44 10° SSE daylight
24 Sep - 02:56:51 10° SW 03:00:11 88° SE 03:03:31 10° NE night (unlit)
24 Sep - 04:34:48 10° WNW 04:37:15 19° NNW 04:39:42 10° NNE visible
24 Sep - 06:13:44 10° NNW 06:14:59 12° N 06:16:14 10° NNE visible
24 Sep - 07:50:08 10° NNW 07:52:42 20° NNE 07:55:14 10° ENE visible
24 Sep - 09:26:23 10° NW 09:29:43 75° SW 09:33:01 10° SE daylight
25 Sep - 02:08:02 10° SSW 02:11:14 47° SE 02:14:27 10° ENE night (unlit)
25 Sep - 03:45:15 10° W 03:48:04 25° NNW 03:50:54 10° NNE night (unlit)
25 Sep - 05:24:19 10° NNW 05:25:41 12° N 05:27:03 10° NNE visible
25 Sep - 07:01:20 10° NNW 07:03:28 16° NNE 07:05:36 10° NE visible
25 Sep - 08:37:24 10° NW 08:40:43 61° NE 08:44:00 10° ESE daylight
25 Sep - 10:15:11 10° W 10:17:03 14° SW 10:18:55 10° SSW daylight
26 Sep - 01:19:30 10° SSW 01:22:19 26° SE 01:25:09 10° ENE night (unlit)
26 Sep - 02:55:48 10° W 02:58:55 36° NNW 03:02:02 10° NE night (unlit)
26 Sep - 04:34:39 10° NW 04:36:21 13° N 04:38:03 10° NNE visible
26 Sep - 06:12:28 10° NNW 06:14:10 13° N 06:15:53 10° NE visible
26 Sep - 07:48:29 10° NW 07:51:36 37° NNE 07:54:43 10° E visible
26 Sep - 09:25:23 10° WNW 09:28:12 25° SW 09:30:59 10° S daylight
27 Sep - 00:31:30 10° SSE 00:33:26 15° SE 00:35:22 10° E night (unlit)
27 Sep - 02:06:29 10° WSW 02:09:47 60° NW 02:13:05 10° NE night (unlit)
27 Sep - 03:44:54 10° NW 03:47:01 16° NNW 03:49:09 10° NNE night (unlit)
27 Sep - 05:23:26 10° NNW 05:24:48 12° N 05:26:10 10° NNE visible
27 Sep - 06:59:34 10° NNW 07:02:24 25° NNE 07:05:14 10° E visible
27 Sep - 08:36:01 10° WNW 08:39:14 46° SW 08:42:25 10° SSE daylight
28 Sep - 01:17:22 10° SW 01:20:40 77° SE 01:24:00 10° NE night (unlit)
28 Sep - 02:55:09 10° WNW 02:57:41 20° NNW 03:00:14 10° NNE night (unlit)
28 Sep - 04:34:09 10° NNW 04:35:23 12° N 04:36:38 10° NNE visible
28 Sep - 06:10:39 10° NNW 06:13:07 19° NNE 06:15:34 10° ENE visible
28 Sep - 07:46:50 10° NW 07:50:10 86° SW 07:53:29 10° SE visible
29 Sep - 00:28:28 10° SSW 00:31:36 40° SE 00:34:45 10° ENE night (unlit)
29 Sep - 02:05:29 10° W 02:08:22 27° NNW 02:11:17 10° NE night (unlit)
29 Sep - 03:44:31 10° NNW 03:45:56 12° N 03:47:22 10° NNE night (unlit)
29 Sep - 05:21:42 10° NNW 05:23:44 15° NNE 05:25:46 10° NE visible
29 Sep - 06:57:44 10° NW 07:01:00 53° NNE 07:04:16 10° ESE visible
29 Sep - 08:35:14 10° W 08:37:24 16° SW 08:39:34 10° S daylight
29 Sep - 23:39:53 10° S 23:42:33 22° SE 23:45:14 10° E night (unlit)
